User: anonymous   Login
Location: Chèvreville
(49.1099°N, 2.8495°E)
Time: 05:02:34
(UTC+00:00)
Language:

Cosmos 1023 Rocket - Orbit

View from above orbital plane
View from above orbital plane
View from above satellite
View from above satellite

Ground track
Ground track

The orbit data is extracted from the following two-line orbital elements,

1 10962U 78063B   23159.43202055  .00000192  00000-0  66752-4 0  9995
2 10962  74.0770 149.4445 0025809 212.5927 147.3638 14.41598922360059
Epoch (UTC): 08 June 2023 10:22:06
Eccentricity: 0.0025809
inclination: 74.0770°
perigee height: 735 km
apogee height: 771 km
right ascension of ascending node: 149.4445°
argument of perigee: 212.5927°
revolutions per day: 14.41598922
mean anomaly at epoch: 147.3638°
orbit number at epoch: 36005

The dashed part of the orbit path shows where the satellite is in the earth's shadow,  

DLR